map of JKH home
Great Circle Mapper logo
JKH - Airport
Location
City:  Chios, Greece
ICAO / IATA:LGHI / JKH

Details
Type:Airport (Aerodrome, Airfield)
Latitude:3820'35"N (38.343175)
Longitude:2608'26"E (26.140572)
Datum:WGS 1984
Elevation:15 ft (5 m)
Variation:4.51E (WMM2015 magnetic declination)
0.10 annual change
Runways:1
Longest:4957 × 98 ft (1511 × 30 m), paved

Time
Time Zone:UTC+2 (DST+3)
Local Time:

Weather
METAR:LGHI 272350Z 27001KT 9999 FEW020 SCT025 08/07 Q1008

Related Locations
Nearby:
Farthest:NTAV: 11371 mi / 18299 km
Raivavae, Tubuai Islands, Austral Islands, PF

Find:

   beyond  
but within

Other Information
Maps:
NOTAMs:
Links:
Sources:

  
flag of Greece   

Sectional Chart

Flight Planning
at skyvector.com

Satellite Image

Google Maps Satellite View

 

Copyright © 2004-2015 Karl L. Swartz. All rights reserved.
The Great Circle Mapper name and logo are trademarks of the Great Circle Mapper.
All other trademarks mentioned herein belong to their respective owners.
Please see credits for attibutions and further copyright information.

  Follow gcmap on Facebook Follow gcmap on Twitter

hCard Microformat

Geo Microformat